Location: Greenwich
(51.4790°N, 0.0090°E)
Time: 17:10:04
(UTC+01:00)

X-37B - Pass Details

Date: 25 September 2021
Orbit: 385 x 389 km, 45.0° (Epoch: 13 October)

Event Time Altitude Azimuth Distance (km) Brightness Sun altitude
Exits shadow 06:13:14 - 236° (SW) 1,668 3.2 -6.7°
Reaches altitude 10° 06:13:57 10° 230° (SW) 1,413 2.9 -6.6°
Maximum altitude 06:16:36 24° 174° (S) 846 2.3 -6.2°
Drops below altitude 10° 06:19:15 10° 117° (ESE) 1,416 4.4 -5.8°
Sets 06:21:33 0° 103° (ESE) 2,272 6.1 -5.4°
